This is the latest recevied weather packets stored in our database for station/object KB8SSH. If no packets are shown the sender has not sent any weather packets the latest 10 day(s).
| Time | Temp. | Humidity | Pressure | Rain* | Wind** | Luminosity | Snow |
|---|---|---|---|---|---|---|---|
| 1777683645 | 7.78° C | 81% | 1049.1 hPa | 0 mm | - | 0 W/m² | - |
| 1777683344 | 7.78° C | 81% | 1048.8 hPa | 0 mm | - | 0 W/m² | - |
| 1777683041 | 8.33° C | 81% | 1049.1 hPa | 0 mm | - | 0 W/m² | - |
| 1777682737 | 8.33° C | 80% | 1049.1 hPa | 0 mm | - | 0 W/m² | - |
| 1777682433 | 8.33° C | 80% | 1048.8 hPa | 0 mm | - | 0 W/m² | - |
| 1777682132 | 8.33° C | 78% | 1048.8 hPa | 0 mm | - | 0 W/m² | - |
| 1777681828 | 8.33° C | 77% | 1049.1 hPa | 0 mm | - | 0 W/m² | - |
| 1777681525 | 8.33° C | 77% | 1049.1 hPa | 0 mm | - | 0 W/m² | - |
| 1777681222 | 8.33° C | 76% | 1049.1 hPa | 0 mm | - | 2 W/m² | - |
| 1777680920 | 8.33° C | 78% | 1048.8 hPa | 0 mm | - | 3 W/m² | - |
| 1777680617 | 8.33° C | 77% | 1049.1 hPa | 0 mm | - | 5 W/m² | - |
| 1777680315 | 8.89° C | 77% | 1048.8 hPa | 0 mm | - | 6 W/m² | - |
| 1777680011 | 8.89° C | 76% | 1048.8 hPa | 0 mm | - | 6 W/m² | - |
| 1777679707 | 8.89° C | 75% | 1048.4 hPa | 0 mm | - | 10 W/m² | - |
| 1777679403 | 8.89° C | 74% | 1048.4 hPa | 0 mm | - | 14 W/m² | - |
| 1777679099 | 8.89° C | 74% | 1048.1 hPa | 0 mm | - | 23 W/m² | - |
| 1777678798 | 8.89° C | 74% | 1048.4 hPa | 0 mm | - | 25 W/m² | - |
| 1777678495 | 8.89° C | 73% | 1048.1 hPa | 0 mm | - | 34 W/m² | - |
| 1777678190 | 9.44° C | 75% | 1048.4 hPa | 0 mm | - | 52 W/m² | - |
| 1777677888 | 9.44° C | 73% | 1048.1 hPa | 0 mm | - | 47 W/m² | - |
| 1777677585 | 9.44° C | 74% | 1048.1 hPa | 0 mm | - | 42 W/m² | - |
| 1777677283 | 9.44° C | 73% | 1048.1 hPa | 0 mm | - | 60 W/m² | - |
| 1777676981 | 9.44° C | 73% | 1048.1 hPa | 0 mm | - | 63 W/m² | - |
| 1777676680 | 8.89° C | 73% | 1048.1 hPa | 0 mm | - | 60 W/m² | - |
| 1777676377 | 9.44° C | 74% | 1048.4 hPa | 0 mm | - | 54 W/m² | - |
* Rain latest hour (hover to see other rain measurements)
** Current wind speed in m/s (hover to see current wind gust speed)